Kerkyra, Greece

8:30 AM EEST on September 28, 2016 (GMT +0300)
Ioannis Kapodistrias

Weather History for LGKR - October, 2012

Change the Weather History Date:

Tuesday, October 2, 2012

  Actual Average Record
Temperature  
Mean Temperature 75 °F -  
Max Temperature 86 °F 75 °F 86 °F (2012)
Min Temperature 64 °F 59 °F 50 °F (2002)
Cooling Degree Days 10    
Growing Degree Days 25 (Base 50)    
Moisture  
Dew Point 67 °F    
Average Humidity 80    
Maximum Humidity 94    
Minimum Humidity 50    
Precipitation  
Precipitation 0.00 in - - ()
Sea Level Pressure  
Sea Level Pressure 30.01 in    
Wind  
Wind Speed 2 mph ()    
Max Wind Speed 12 mph    
Max Gust Speed -    
Visibility 6.5 miles    
Events      
Averages and records for this station are not official NWS values.
T = Trace of Precipitation, MM = Missing Value Source: Averaged Metar Reports

Daily Weather History Graph

Daily Weather History Graph

Search for Another Location

Airport or City:

Trip Planner

Search our weather history database for the weather conditions in past years. The results will help you decide how hot, cold, wet, or windy it might be!

Date:

Astronomy

Oct. 02, 2012 Rise Set
Actual Time 7:37 AM EEST 7:20 PM EEST
Civil Twilight 7:10 AM EEST 7:47 PM EEST
Nautical Twilight 6:39 AM EEST 8:18 PM EEST
Astronomical Twilight 6:08 AM EEST 8:50 PM EEST
Moon 8:23 PM EEST (10/2) 9:46 AM EEST (10/2)
Length of Visible Light 12h 36m
Length of Day
11h 43m
Waning Gibbous, 95% of the Moon is Illuminated
Oct 2
Waning Gibbous
Oct 8
Last Quarter
Oct 15
New
Oct 22
First Quarter
Oct 29
Full

Hourly Weather History & Observations

Time (EEST) Temp. Heat Index Dew Point Humidity Pressure Visibility Wind Dir Wind Speed Gust Speed Precip Events Conditions
12:20 AM 69.8 °F - 66.2 °F 88% 30.04 in 6.2 mi Calm Calm - N/A   Scattered Clouds
12:50 AM 69.8 °F - 66.2 °F 88% 30.04 in 6.2 mi Calm Calm - N/A   Scattered Clouds
1:20 AM 69.8 °F - 66.2 °F 88% 30.04 in 6.2 mi Calm Calm - N/A   Scattered Clouds
1:50 AM 69.8 °F - 66.2 °F 88% 30.04 in 6.2 mi Calm Calm - N/A   Scattered Clouds
2:20 AM 68.0 °F - 66.2 °F 94% 30.04 in 6.2 mi Calm Calm - N/A   Scattered Clouds
2:50 AM 66.2 °F - 62.6 °F 88% 30.04 in - Calm Calm - N/A   Clear
3:00 AM 67 °F - 62 °F 81% 30.06 in 6 mi Calm Calm - -   Clear
3:20 AM 66.2 °F - 62.6 °F 88% 30.04 in - Calm Calm - N/A   Clear
3:50 AM 66.2 °F - 62.6 °F 88% 30.04 in - Calm Calm - N/A   Clear
4:20 AM 66.2 °F - 62.6 °F 88% 30.04 in - Calm Calm - N/A   Clear
4:50 AM 66.2 °F - 62.6 °F 88% 30.04 in - Calm Calm - N/A   Clear
5:20 AM 66.2 °F - 62.6 °F 88% 30.04 in - Calm Calm - N/A   Clear
5:50 AM 64.4 °F - 62.6 °F 94% 30.04 in - Calm Calm - N/A   Clear
6:20 AM 64.4 °F - 62.6 °F 94% 30.04 in - Calm Calm - N/A   Clear
6:50 AM 64.4 °F - 62.6 °F 94% 30.04 in 6.2 mi Calm Calm - N/A   Scattered Clouds
7:20 AM 64.4 °F - 62.6 °F 94% 30.04 in 6.2 mi Calm Calm - N/A   Scattered Clouds
7:50 AM 64.4 °F - 62.6 °F 94% 30.01 in 6.2 mi Calm Calm - N/A   Scattered Clouds
8:20 AM 64.4 °F - 62.6 °F 94% 30.01 in 6.2 mi Calm Calm - N/A   Scattered Clouds
8:50 AM 64.4 °F - 62.6 °F 94% 30.01 in 6.2 mi Calm Calm - N/A   Partly Cloudy
9:00 AM 65 °F - 62 °F 88% 30.01 in 12 mi Calm Calm - -   Scattered Clouds
9:20 AM 66.2 °F - 62.6 °F 88% 30.01 in 6.2 mi Calm Calm - N/A   Partly Cloudy
9:50 AM 71.6 °F - 66.2 °F 83% 30.01 in 6.2 mi Calm Calm - N/A   Partly Cloudy
10:20 AM 73.4 °F - 66.2 °F 78% 30.01 in 6.2 mi Calm Calm - N/A   Partly Cloudy
10:50 AM 77.0 °F - 71.6 °F 83% 30.01 in 6.2 mi NW 3.5 mph - N/A   Partly Cloudy
11:20 AM 78.8 °F - 71.6 °F 78% 30.01 in 6.2 mi NW 3.5 mph - N/A   Partly Cloudy
11:50 AM 82.4 °F 84.6 °F 66.2 °F 58% 30.01 in 6.2 mi SSW 10.4 mph - N/A   Scattered Clouds
12:20 PM 82.4 °F 84.6 °F 66.2 °F 58% 30.01 in 6.2 mi SSW 10.4 mph - N/A   Scattered Clouds
12:50 PM 84.2 °F 86.6 °F 66.2 °F 55% 30.01 in 6.2 mi SSE 8.1 mph - N/A   Scattered Clouds
1:20 PM 84.2 °F 86.6 °F 66.2 °F 55% 30.01 in 6.2 mi SSE 8.1 mph - N/A   Scattered Clouds
1:50 PM 84.2 °F 88.4 °F 69.8 °F 62% 30.01 in 6.2 mi SE 5.8 mph - N/A   Partly Cloudy
2:20 PM 84.2 °F 88.4 °F 69.8 °F 62% 30.01 in 6.2 mi ESE 8.1 mph - N/A   Scattered Clouds
2:50 PM 86.0 °F 90.4 °F 69.8 °F 58% 29.98 in 6.2 mi SSE 9.2 mph - N/A   Scattered Clouds
3:00 PM 86 °F - 70 °F 50% 30.00 in 12 mi SSE 9.2 mph - -   Partly Cloudy
3:20 PM 86.0 °F 90.4 °F 69.8 °F 58% 29.98 in 6.2 mi SSE 9.2 mph - N/A   Scattered Clouds
3:50 PM 86.0 °F 90.4 °F 69.8 °F 58% 29.98 in 6.2 mi SSE 10.4 mph - N/A   Scattered Clouds
4:20 PM 86.0 °F 90.4 °F 69.8 °F 58% 29.98 in 6.2 mi West 8.1 mph - N/A   Scattered Clouds
4:50 PM 82.4 °F 89.5 °F 75.2 °F 79% 29.98 in 6.2 mi South 9.2 mph - N/A   Mostly Cloudy
5:20 PM 82.4 °F 89.5 °F 75.2 °F 79% 29.98 in 6.2 mi SSE 9.2 mph - N/A   Mostly Cloudy
5:50 PM 80.6 °F 83.9 °F 69.8 °F 70% 29.98 in 6.2 mi South 11.5 mph - N/A   Mostly Cloudy
6:20 PM 80.6 °F 83.9 °F 69.8 °F 70% 29.98 in 6.2 mi South 11.5 mph - N/A   Mostly Cloudy
6:50 PM 78.8 °F - 69.8 °F 74% 29.98 in 6.2 mi WSW 5.8 mph - N/A   Mostly Cloudy
7:20 PM 78.8 °F - 69.8 °F 74% 29.98 in 6.2 mi West 5.8 mph - N/A   Mostly Cloudy
7:50 PM 77.0 °F - 69.8 °F 78% 29.98 in 6.2 mi WSW 8.1 mph - N/A   Mostly Cloudy
8:20 PM 77.0 °F - 69.8 °F 78% 29.98 in 6.2 mi SW 4.6 mph - N/A   Mostly Cloudy
8:50 PM 77.0 °F - 71.6 °F 83% 29.98 in 6.2 mi WSW 3.5 mph - N/A   Scattered Clouds
9:00 PM 77 °F - 72 °F 79% 30.00 in 6 mi WSW 3.5 mph - -   Partly Cloudy
9:20 PM 77.0 °F - 71.6 °F 83% 29.98 in 6.2 mi WSW 3.5 mph - N/A   Scattered Clouds
9:50 PM 75.2 °F - 71.6 °F 89% 30.01 in 6.2 mi Calm Calm - N/A   Scattered Clouds
10:20 PM 75.2 °F - 71.6 °F 89% 30.01 in 6.2 mi Calm Calm - N/A   Scattered Clouds
10:50 PM 75.2 °F - 71.6 °F 89% 30.01 in 6.2 mi Calm Calm - N/A   Scattered Clouds
11:20 PM 73.4 °F - 71.6 °F 94% 30.01 in 6.2 mi Calm Calm - N/A   Scattered Clouds
11:50 PM 73.4 °F - 71.6 °F 94% 30.01 in 6.2 mi Calm Calm - N/A   Scattered Clouds